[[{"header":{"parameterUnit":"m.s-1","parameterCategory":1,"la1":30.2991,"la2":30.254,"lo1":-89.0895,"lo2":-89.0444,"dy":0.0017,"dx":0.0017,"nx":28,"ny":28,"refTime":"2024-12-12T09:00:00:Z","depth":0,"parameterNumber":2,"parameterNumberName":"U-component_of_WINDS"},"data":[0,0,0,0,0,0,0,0,0,0,0,0,0,0,0,0,0,0,0,0,0,0,0,0,0,0,0,0,0,0,0,0,0,0,0,0,0,0,0,0,0,0,0,0,0,0,0,0,0,0,0,0,0,0,0,0,0,0,1.5489,1.5489,0,1.5476,1.5476,1.5476,1.5447,1.5446,1.5445,1.5445,1.5431,1.5431,1.5431,0,0,0,0,0,0,0,0,0,0,0,0,0,1.549,1.549,1.5489,1.5489,1.5489,1.5476,1.5476,1.5476,1.5447,1.5446,1.5445,1.5445,1.5431,1.5431,1.5431,0,0,0,0,0,0,0,0,0,0,0,0,0,1.5485,1.549,1.5489,1.5473,1.5471,1.5476,1.5476,1.5476,1.5447,1.5446,1.5445,1.5444,1.5431,1.5431,1.5431,1.5451,0,0,1.5432,1.5432,0,0,0,0,0,0,0,0,1.5485,1.5485,1.5476,1.5474,1.5472,1.5462,1.5471,1.5467,1.5447,1.5456,1.5445,1.5444,1.5442,1.5441,1.5441,1.545,1.545,1.5432,1.5432,1.5433,1.5433,0,0,0,0,0,0,0,1.5485,1.5485,1.5484,1.5476,1.5474,1.5466,1.5465,1.547,1.5454,1.5455,1.5453,1.5452,1.5441,1.5441,1.544,1.545,1.5432,1.5433,1.5433,1.5433,1.5475,1.5476,0,0,0,0,0,0,1.5488,1.5485,1.5485,1.5484,1.5477,1.5467,1.5465,1.5466,1.5454,1.5451,1.5453,1.5451,1.5441,1.544,1.544,1.5462,1.5433,1.5433,1.5433,1.5474,1.5475,1.5476,0,0,0,0,0,0,1.5488,1.5488,1.5485,1.5484,1.5483,1.5468,1.547,1.5467,1.5466,1.5452,1.5449,1.5455,1.544,1.5439,1.5449,1.5461,1.5433,1.5433,1.5473,1.5474,1.5476,1.5506,0,0,0,0,0,0,1.5488,1.5488,1.5496,1.5484,1.5483,1.5494,1.547,1.5467,1.5467,1.5464,1.5454,1.5451,1.5439,1.5448,1.5449,1.5461,1.5433,1.5472,1.5474,1.5475,1.5504,1.5508,1.5512,0,0,0,0,0,1.5488,1.5505,1.5496,1.5496,1.5492,1.5495,1.5494,1.548,1.5468,1.5475,1.5466,1.5452,1.546,1.5449,1.545,1.5462,1.5471,1.5473,1.5475,1.5502,1.5507,1.5512,0,0,0,0,0,0,1.5517,1.5503,1.5493,1.5506,1.5502,1.549,1.5498,1.5486,1.5485,1.5483,1.5465,1.5463,1.5475,1.5469,1.5458,1.5481,1.5463,1.5465,1.5483,1.5488,1.5492,1.5493,1.5434,0,0,0,0,0,1.5525,1.5529,1.5516,1.5529,1.5527,1.5513,1.5514,1.5504,1.5498,1.5496,1.5488,1.5484,1.5486,1.5487,1.5488,1.5504,1.5501,1.5512,1.5516,1.552,1.5522,1.553,1.5535,1.5483,1.5483,1.5483,0,0,1.5541,1.5534,1.5537,1.5534,1.553,1.5534,1.5512,1.5517,1.552,1.5497,1.5505,1.55,1.5494,1.5506,1.5511,1.5502,1.5536,1.5523,1.5525,1.5525,1.5532,1.5537,1.5542,1.5485,1.5485,1.5484,0,0,1.5572,1.5567,1.5577,1.5574,1.5567,1.5558,1.5561,1.5551,1.5546,1.5554,1.5537,1.5541,1.5544,1.554,1.5539,1.5571,1.5557,1.5571,1.5593,1.5601,1.5605,1.5608,1.5619,1.5623,1.5574,1.5574,1.5574,0,1.5593,1.5598,1.5584,1.559,1.559,1.557,1.558,1.5577,1.5572,1.5572,1.5562,1.5565,1.556,1.5572,1.558,1.5579,1.5582,1.5572,1.5605,1.5609,1.5612,1.5622,1.5626,1.5575,1.5575,1.5575,1.5575,0,1.5624,1.5628,1.5637,1.5632,1.5633,1.5641,1.5628,1.5631,1.5621,1.5613,1.5621,1.5615,1.5614,1.5616,1.5606,1.5626,1.5621,1.5609,1.559,1.5619,1.5628,1.5632,1.5578,1.5577,1.5577,1.5576,0,0,1.5671,1.5659,1.5663,1.5661,1.5653,1.5656,1.5664,1.5663,1.5665,1.5663,1.5669,1.5672,1.5661,1.566,1.565,1.5657,1.5682,1.5644,1.5643,1.565,1.5704,1.5712,1.5717,1.5674,1.5674,1.5675,1.5704,0,1.57,1.5712,1.57,1.5715,1.5718,1.5701,1.5707,1.5704,1.5697,1.5699,1.5692,1.5695,1.568,1.5679,1.5685,1.5678,1.5692,1.5675,1.5678,1.5679,1.5679,1.5722,1.573,1.5758,1.5707,1.5708,1.5708,0,1.5735,1.5734,1.5749,1.5741,1.5742,1.5748,1.5747,1.575,1.5745,1.574,1.5739,1.5727,1.5734,1.5718,1.5727,1.5716,1.5717,1.5714,1.5714,1.5713,1.5694,1.5721,1.5767,1.577,1.5714,1.5714,1.5713,0,1.5767,1.577,1.5779,1.5778,1.5769,1.5774,1.577,1.5765,1.5766,1.5765,1.5765,1.5765,1.5765,1.5765,1.5754,1.5743,1.5765,1.5748,1.5761,1.5761,1.5765,1.5764,1.581,1.5767,1.5767,1.5767,1.5767,0,1.5799,1.5809,1.5793,1.5799,1.581,1.5796,1.5807,1.5802,1.5798,1.5802,1.5787,1.5792,1.5777,1.578,1.5771,1.578,1.5781,1.5776,1.5774,1.5777,1.5777,1.5776,1.5774,1.5768,1.5768,1.5768,1.5768,0,1.5836,1.5826,1.5835,1.5826,1.5824,1.5833,1.5825,1.583,1.5823,1.5829,1.583,1.5818,1.5821,1.581,1.5812,1.5806,1.5819,1.5814,1.5821,1.5819,1.5832,1.583,1.5878,1.5883,1.5838,1.5838,1.5839,0,1.5857,1.5864,1.5856,1.5858,1.5856,1.5859,1.586,1.5847,1.5849,1.5845,1.5851,1.5853,1.5853,1.5859,1.5851,1.5852,1.5846,1.5862,1.5846,1.5849,1.5845,1.5844,1.5845,1.5865,1.5866,1.5866,1.5867,0,1.5895,1.589,1.5891,1.5892,1.5893,1.5892,1.5891,1.5894,1.588,1.5883,1.5885,1.5886,1.5888,1.589,1.5889,1.5886,1.5874,1.5872,1.5875,1.5878,1.5881,1.5879,1.5829,1.5871,1.587,1.587,1.587,1.587,1.5923,1.5929,1.5925,1.5927,1.5925,1.5924,1.5928,1.5922,1.5925,1.5925,1.5918,1.5922,1.5918,1.5917,1.5914,1.5918,1.591,1.5914,1.5915,1.5916,1.5918,1.5882,1.5918,1.5918,1.5918,1.5917,1.5917,0,1.596,1.5956,1.5959,1.5957,1.596,1.5949,1.5947,1.595,1.5954,1.5952,1.5953,1.5957,1.5959,1.5952,1.5953,1.5957,1.5952,1.5958,1.5956,1.5956,1.5925,1.5922,1.5962,1.5962,1.5962,1.5962,1.5962,1.5962,1.5979,1.5988,1.5982,1.599,1.5987,1.5991,1.5991,1.599,1.5988,1.5993,1.5995,1.599,1.5986,1.5987,1.5989,1.5987,1.5987,1.5995,1.5991,1.5962,1.5958,1.5954,1.5951,1.5995,1.5995,1.6021,1.6021,1.6021]},{"header":{"parameterUnit":"m.s-1","parameterCategory":1,"la1":30.2991,"la2":30.254,"lo1":-89.0895,"lo2":-89.0444,"dy":0.0017,"dx":0.0017,"nx":28,"ny":28,"refTime":"2024-12-12T09:00:00:Z","depth":0,"parameterNumber":3,"parameterNumberName":"V-component_of_WINDS"},"data":[0,0,0,0,0,0,0,0,0,0,0,0,0,0,0,0,0,0,0,0,0,0,0,0,0,0,0,0,0,0,0,0,0,0,0,0,0,0,0,0,0,0,0,0,0,0,0,0,0,0,0,0,0,0,0,0,0,0,-3.0395,-3.0396,0,-3.0532,-3.0534,-3.0535,-3.049,-3.0487,-3.0484,-3.0481,-3.0621,-3.0628,-3.0634,0,0,0,0,0,0,0,0,0,0,0,0,0,-3.0093,-3.0098,-3.0394,-3.0396,-3.0398,-3.0532,-3.0534,-3.0536,-3.049,-3.0487,-3.0483,-3.048,-3.0619,-3.0627,-3.0635,0,0,0,0,0,0,0,0,0,0,0,0,0,-3.0226,-3.01,-3.0394,-3.0391,-3.0392,-3.0532,-3.0534,-3.0536,-3.0491,-3.0486,-3.0482,-3.0478,-3.0617,-3.0626,-3.0636,-3.0786,0,0,-3.0666,-3.067,0,0,0,0,0,0,0,0,-3.0219,-3.0238,-3.039,-3.0392,-3.0393,-3.0489,-3.0479,-3.062,-3.0492,-3.0454,-3.0481,-3.0476,-3.0581,-3.0593,-3.0629,-3.0792,-3.0798,-3.0667,-3.0673,-3.0677,-3.0679,0,0,0,0,0,0,0,-3.021,-3.0231,-3.0449,-3.0392,-3.0394,-3.0383,-3.0397,-3.0505,-3.0541,-3.0457,-3.0454,-3.0471,-3.0581,-3.062,-3.0632,-3.08,-3.0666,-3.0675,-3.0681,-3.0685,-3.1096,-3.1101,0,0,0,0,0,0,-3.0199,-3.0224,-3.0444,-3.0453,-3.0293,-3.0392,-3.0408,-3.0463,-3.0539,-3.0547,-3.0474,-3.0468,-3.0605,-3.0621,-3.0637,-3.0819,-3.0677,-3.0686,-3.0691,-3.1091,-3.1097,-3.1102,0,0,0,0,0,0,-3.0193,-3.022,-3.0439,-3.0338,-3.0365,-3.0402,-3.0464,-3.0468,-3.0507,-3.0553,-3.0559,-3.0507,-3.0602,-3.0623,-3.075,-3.0823,-3.069,-3.0699,-3.1085,-3.1093,-3.11,-3.1184,0,0,0,0,0,0,-3.0185,-3.0218,-3.0275,-3.0339,-3.037,-3.055,-3.0469,-3.0474,-3.0524,-3.0517,-3.0585,-3.0592,-3.06,-3.0735,-3.0759,-3.0834,-3.0707,-3.1079,-3.1088,-3.1097,-3.1175,-3.1194,-3.121,0,0,0,0,0,-3.0174,-3.0292,-3.0278,-3.0305,-3.0443,-3.0554,-3.0572,-3.0579,-3.053,-3.0588,-3.0618,-3.059,-3.0811,-3.0749,-3.0775,-3.0854,-3.1074,-3.1086,-3.1097,-3.1167,-3.119,-3.1209,0,0,0,0,0,0,-3.0235,-3.0301,-3.0285,-3.0428,-3.0486,-3.0546,-3.0619,-3.0602,-3.0675,-3.0665,-3.067,-3.0686,-3.0817,-3.0848,-3.0777,-3.1005,-3.0935,-3.0953,-3.098,-3.1002,-3.1019,-3.1009,-3.0715,0,0,0,0,0,-3.0265,-3.035,-3.0403,-3.0524,-3.0553,-3.0582,-3.063,-3.0631,-3.0691,-3.0715,-3.0754,-3.0813,-3.0896,-3.095,-3.1029,-3.1179,-3.1194,-3.1246,-3.1264,-3.1278,-3.1293,-3.1377,-3.1401,-3.114,-3.114,-3.114,0,0,-3.0328,-3.0374,-3.0427,-3.0537,-3.0582,-3.067,-3.0602,-3.0698,-3.0764,-3.0729,-3.0852,-3.0883,-3.0949,-3.1089,-3.1152,-3.1119,-3.1369,-3.1292,-3.1303,-3.1311,-3.1391,-3.1416,-3.1438,-3.1148,-3.1146,-3.1145,0,0,-3.0488,-3.0531,-3.0638,-3.0684,-3.0753,-3.0771,-3.0797,-3.0861,-3.088,-3.1003,-3.0979,-3.1057,-3.12,-3.1249,-3.1292,-3.1473,-3.1451,-3.1498,-3.1589,-3.1671,-3.1691,-3.171,-3.1776,-3.18,-3.1513,-3.1513,-3.1513,0,-3.0558,-3.069,-3.0695,-3.0793,-3.0843,-3.0816,-3.0924,-3.0969,-3.106,-3.1095,-3.1056,-3.1236,-3.1278,-3.143,-3.1474,-3.151,-3.154,-3.1491,-3.1688,-3.1707,-3.1724,-3.1787,-3.1812,-3.1518,-3.1518,-3.1517,-3.1517,0,-3.0773,-3.0865,-3.0943,-3.1033,-3.1091,-3.1194,-3.1215,-3.1273,-3.1268,-3.1291,-3.1418,-3.1468,-3.1557,-3.1593,-3.1589,-3.1745,-3.1722,-3.1686,-3.1617,-3.1754,-3.1814,-3.1838,-3.1526,-3.1524,-3.1523,-3.1521,0,0,-3.0976,-3.1068,-3.1096,-3.1138,-3.1212,-3.1284,-3.1386,-3.1474,-3.1525,-3.1588,-3.1675,-3.1797,-3.1764,-3.1813,-3.1815,-3.1886,-3.2029,-3.1841,-3.1843,-3.1876,-3.2206,-3.2235,-3.2263,-3.2014,-3.2019,-3.2022,-3.2201,0,-3.1144,-3.1324,-3.1332,-3.1496,-3.1582,-3.1558,-3.1647,-3.1703,-3.1727,-3.1804,-3.183,-3.1917,-3.1866,-3.1896,-3.1966,-3.1997,-3.2095,-3.1984,-3.2096,-3.21,-3.2082,-3.2293,-3.2324,-3.249,-3.2224,-3.2228,-3.2231,0,-3.1364,-3.1436,-3.1609,-3.1673,-3.171,-3.179,-3.1872,-3.1945,-3.2008,-3.2021,-3.2077,-3.2069,-3.2174,-3.21,-3.2247,-3.2171,-3.2217,-3.2239,-3.2246,-3.2258,-3.2175,-3.2313,-3.2543,-3.2569,-3.2268,-3.2265,-3.2262,0,-3.1498,-3.1637,-3.176,-3.1795,-3.1872,-3.193,-3.1964,-3.2023,-3.2076,-3.2148,-3.2183,-3.2265,-3.2311,-3.2376,-3.239,-3.2335,-3.2537,-3.2464,-3.2552,-3.2552,-3.2597,-3.2594,-3.2839,-3.2624,-3.2623,-3.2623,-3.2622,0,-3.1685,-3.1793,-3.1821,-3.1896,-3.2016,-3.2024,-3.2143,-3.2173,-3.2226,-3.2308,-3.2291,-3.2368,-3.2382,-3.2462,-3.2474,-3.2594,-3.2614,-3.2628,-3.2631,-3.2631,-3.263,-3.2663,-3.2653,-3.2629,-3.2628,-3.2627,-3.2625,0,-3.1855,-3.1878,-3.201,-3.2073,-3.2091,-3.2177,-3.2231,-3.2304,-3.2325,-3.2429,-3.2454,-3.2489,-3.2583,-3.2603,-3.2714,-3.2722,-3.2866,-3.2855,-3.2845,-3.2845,-3.2932,-3.2925,-3.3209,-3.3248,-3.3005,-3.3007,-3.3009,0,-3.1975,-3.2057,-3.2129,-3.2182,-3.222,-3.2307,-3.2361,-3.2372,-3.2429,-3.2508,-3.2572,-3.2664,-3.2738,-3.2889,-3.2925,-3.301,-3.3003,-3.3097,-3.3016,-3.3015,-3.3007,-3.3003,-3.3012,-3.3113,-3.3115,-3.3118,-3.3119,0,-3.2185,-3.2193,-3.2271,-3.2356,-3.2421,-3.2487,-3.255,-3.2595,-3.2615,-3.2681,-3.2777,-3.2834,-3.2948,-3.304,-3.3126,-3.3162,-3.3146,-3.3144,-3.317,-3.3172,-3.3164,-3.3172,-3.289,-3.3138,-3.3136,-3.3135,-3.3134,-3.3133,-3.2335,-3.2408,-3.247,-3.2559,-3.2608,-3.2668,-3.274,-3.2772,-3.2852,-3.2946,-3.2948,-3.3053,-3.3115,-3.3229,-3.327,-3.3353,-3.3324,-3.336,-3.337,-3.3379,-3.3388,-3.3149,-3.3368,-3.3368,-3.3367,-3.3367,-3.3367,0,-3.2546,-3.2586,-3.2667,-3.2757,-3.2828,-3.2805,-3.2874,-3.2935,-3.3028,-3.3088,-3.3161,-3.3273,-3.3362,-3.3405,-3.3494,-3.3553,-3.3547,-3.3576,-3.3573,-3.3582,-3.3408,-3.3378,-3.3579,-3.3579,-3.3579,-3.3579,-3.3579,-3.3579,-3.2665,-3.2788,-3.2803,-3.295,-3.2989,-3.3092,-3.3134,-3.319,-3.3238,-3.3363,-3.3438,-3.3465,-3.3519,-3.3612,-3.3693,-3.3704,-3.3738,-3.3771,-3.3778,-3.3615,-3.3594,-3.3573,-3.3546,-3.3778,-3.3778,-3.3945,-3.3947,-3.3948]}]]